Theta_e
293 293 293 292 291 291 291 291 291 291 291 291 290 290 290 290 290 290 290 290 290 290 290 290 290 290 290 289 289 289 290 289 290 289 289 289 289 289 289 288 288 289 289 288 289 289 288 288 288 288 289 288 288 289 288 288 288 287 288 287 286 287 286 285 283 283 286 289 288 288 288 288 287 288 287 287 287 287 286 286 286 286 285 285 285
294 294 293 292 292 291 291 291 291 291 291 291 290 290 291 290 291 290 290 290 290 290 289 290 290 290 289 289 289 289 289 289 290 290 289 289 289 290 289 288 288 288 288 288 288 289 288 288 288 288 289 288 288 288 288 288 288 287 287 287 286 287 287 285 284 283 283 286 287 288 287 288 285 288 286 286 286 286 285 286 286 286 285 285 284
296 294 293 292 292 292 291 291 290 290 290 290 290 291 291 291 291 290 290 289 290 290 290 290 290 289 289 289 289 289 289 289 289 289 289 289 289 289 289 289 288 288 288 288 288 289 288 288 288 288 289 288 288 288 288 288 288 287 287 287 287 287 287 287 285 283 283 284 287 286 286 287 286 286 287 287 286 286 285 285 285 285 285 285 284
294 293 292 292 292 292 291 291 290 289 289 290 290 291 291 291 291 290 290 290 290 290 290 290 290 289 289 289 289 289 289 289 289 289 289 289 289 289 289 289 289 289 289 289 289 289 288 288 288 289 289 288 288 288 288 288 288 287 287 288 287 287 287 287 287 285 284 283 285 285 286 285 286 287 287 286 285 285 285 285 285 284 284 285 284
293 293 292 293 293 291 291 291 290 290 289 290 290 291 291 290 290 290 290 290 290 290 290 290 289 289 289 288 289 288 289 289 289 289 289 289 289 289 289 289 289 289 289 289 289 289 289 288 288 289 289 288 288 288 288 288 288 287 287 287 287 287 287 287 287 286 284 283 284 286 286 285 286 286 286 284 284 284 284 284 284 284 284 284 284
293 292 292 292 292 292 292 292 291 290 290 291 290 290 290 290 290 290 289 289 290 290 289 289 289 288 289 289 289 289 289 289 289 288 289 289 289 289 289 289 289 289 289 289 289 289 289 289 289 289 288 288 287 288 288 288 288 287 287 287 287 287 287 287 286 286 285 284 284 284 285 284 284 284 285 285 283 282 283 283 284 283 283 282 283
293 292 292 292 292 293 293 293 292 292 291 291 291 291 290 290 289 289 289 289 289 289 289 289 289 289 289 289 289 289 289 289 289 289 288 289 288 288 288 288 288 288 289 289 289 289 289 289 289 289 288 288 288 288 288 288 288 287 287 287 287 287 286 286 286 285 285 284 284 284 284 285 284 282 285 285 283 282 281 281 281 283 283 282 281
291 292 292 292 292 293 294 294 293 293 292 292 291 290 290 289 289 289 289 288 288 288 289 288 289 289 288 289 289 289 289 289 289 288 288 288 288 288 288 288 288 288 288 288 288 288 288 288 288 289 289 289 288 288 288 288 288 287 288 287 287 286 285 285 285 284 284 284 283 283 284 283 284 284 284 283 281 281 282 281 279 280 280 281 281
291 292 292 291 293 294 294 294 293 292 291 290 290 290 290 290 289 289 288 288 289 289 289 289 288 288 288 288 288 289 288 288 289 288 288 288 288 288 288 287 287 287 287 288 288 288 288 288 288 288 289 288 287 287 288 288 288 287 287 287 287 286 285 285 285 284 284 284 283 284 283 283 283 282 282 281 281 281 282 281 279 280 280 280 280
291 291 292 292 294 294 294 293 292 292 291 290 290 290 290 289 289 288 288 288 288 288 288 288 288 288 288 288 288 288 288 288 287 287 288 288 288 288 288 287 287 287 287 287 287 287 287 288 288 286 286 285 285 286 286 287 286 286 286 287 286 286 285 285 284 284 284 283 283 283 282 282 283 283 282 282 283 282 281 280 278 279 279 278 279
291 291 292 293 293 293 293 292 292 291 291 291 291 290 290 290 289 288 288 288 288 287 287 287 287 287 287 287 287 288 288 288 287 288 288 288 287 287 287 287 287 287 286 286 286 287 287 287 287 287 286 285 285 285 286 286 286 286 286 286 286 286 285 284 284 284 284 283 284 283 283 282 283 283 282 282 282 281 280 279 279 278 277 276 275
291 291 292 292 292 292 292 292 292 291 291 291 291 291 290 289 289 289 288 288 288 287 287 287 287 287 287 287 287 287 288 287 288 287 288 288 287 287 287 287 287 287 286 286 286 286 287 287 287 288 287 287 287 286 285 285 286 286 286 286 286 286 286 285 284 284 284 283 283 283 283 282 282 283 282 281 281 280 280 279 278 277 277 276 276
291 291 291 291 291 292 292 292 291 291 292 292 291 291 290 289 289 289 288 289 288 287 287 287 287 287 287 286 286 286 287 287 288 288 287 288 288 287 287 287 287 286 286 286 286 286 286 287 287 287 288 285 285 286 286 286 286 286 286 286 286 287 287 287 286 285 285 284 283 283 283 283 282 282 282 281 281 278 278 278 278 278 277 276 277
291 291 291 291 291 291 291 291 291 291 292 292 291 291 290 289 290 290 289 289 288 287 287 287 287 287 287 286 286 286 287 287 288 288 287 287 288 288 288 288 288 287 287 287 287 287 287 286 286 286 287 287 286 286 286 285 286 286 286 286 286 286 286 287 287 286 285 285 284 283 284 283 281 282 282 281 279 278 278 277 278 277 277 277 278
291 291 290 291 291 291 291 291 291 291 291 291 291 290 290 290 290 290 289 289 288 288 288 287 287 287 287 286 286 286 286 287 288 288 287 287 288 288 288 288 288 288 288 288 287 287 287 287 287 286 287 287 287 286 286 286 286 286 285 285 286 286 286 287 287 286 286 285 285 284 283 283 282 281 281 281 280 280 280 279 279 278 278 278 277
290 290 290 291 291 291 291 291 291 291 291 291 290 290 290 290 290 290 289 289 289 288 288 289 288 288 287 286 286 285 286 287 287 287 287 287 288 288 288 288 288 288 288 288 288 288 288 288 287 287 287 287 286 286 286 286 286 285 285 285 285 286 286 287 287 287 287 286 284 283 282 282 281 281 281 281 280 281 280 280 279 277 276 275 274
290 290 290 291 291 291 291 291 291 291 291 290 290 290 290 290 290 290 289 289 288 288 287 287 287 287 287 286 286 285 286 286 287 287 287 287 287 287 287 288 288 288 287 288 288 288 288 288 288 287 287 287 287 287 287 285 284 284 284 284 284 284 284 283 282 282 282 282 282 282 282 282 282 282 282 283 281 280 279 277 275 276 274 271 271
290 291 291 291 291 292 291 291 290 290 290 290 290 290 291 291 290 290 289 289 288 288 288 287 287 287 286 286 286 285 285 286 286 287 287 287 287 287 287 287 287 287 287 288 288 288 288 286 286 287 287 286 287 287 287 286 284 283 283 283 282 281 281 281 280 281 282 282 282 282 281 281 281 281 280 280 278 278 278 274 275 275 272 271 270
291 291 291 292 292 292 292 291 291 290 290 290 290 290 290 290 290 289 289 289 289 289 288 286 286 286 286 286 285 285 285 285 286 287 287 287 286 287 287 287 286 286 286 286 287 287 287 286 285 285 286 286 287 287 287 286 285 284 283 282 281 280 280 280 279 278 278 278 278 279 279 279 279 279 279 277 276 276 277 275 274 273 271 271 271
292 292 292 292 292 292 292 291 290 290 290 290 290 290 290 289 289 289 289 289 288 288 287 286 286 285 285 285 284 284 284 284 285 287 287 287 287 286 287 286 286 285 286 286 286 286 286 286 286 286 286 286 286 286 286 286 285 285 283 280 280 279 281 280 279 279 278 278 277 278 278 278 278 277 277 276 276 275 275 274 274 273 271 270 269
292 292 292 292 292 291 291 291 290 290 290 290 290 289 289 289 289 288 288 288 287 287 285 285 285 285 285 286 285 284 284 284 285 286 286 287 287 286 286 286 286 286 286 286 285 285 285 285 286 286 286 286 286 286 286 286 286 285 282 281 281 281 280 279 278 278 277 277 277 277 277 276 276 276 275 275 274 274 274 274 273 273 271 270 269
292 292 291 291 291 291 291 291 290 290 290 289 288 288 289 289 288 288 288 287 286 286 285 285 285 285 285 285 284 284 284 284 284 285 286 286 286 287 286 286 287 286 285 285 285 285 285 285 285 284 285 285 286 286 286 286 286 283 282 282 281 280 279 279 278 277 277 276 275 274 274 273 273 274 274 273 273 273 273 272 272 272 272 272 270
292 291 291 290 290 290 290 289 289 290 289 288 288 287 288 287 287 287 286 286 286 285 284 284 285 285 285 284 284 284 284 284 284 284 284 285 286 286 287 286 287 286 285 284 284 285 286 285 284 283 284 284 285 286 286 286 285 282 282 282 281 280 279 277 275 275 274 273 272 271 272 272 272 272 272 272 272 272 272 272 272 272 271 271 271
291 290 289 288 289 289 288 288 289 289 288 288 287 286 286 286 286 286 286 286 285 285 284 284 284 284 284 284 284 284 284 284 284 284 284 284 285 286 286 287 287 286 285 285 285 286 285 284 283 283 283 284 285 285 285 285 283 283 282 281 281 279 276 274 274 273 272 271 271 271 270 271 271 271 271 271 271 271 271 271 270 270 269 269 269
289 289 288 288 288 288 288 288 288 288 288 288 286 286 286 286 285 286 285 285 285 284 284 285 284 285 285 284 285 285 285 285 285 284 283 283 284 285 285 286 286 287 285 286 286 285 285 284 283 283 283 284 284 284 284 283 283 282 281 280 278 276 274 274 273 272 271 270 271 271 271 271 271 271 271 271 270 270 268 268 268 267 267 267 266
287 287 287 287 288 287 287 287 287 287 287 287 287 287 286 286 286 286 286 285 284 284 284 285 285 285 284 285 285 286 286 285 285 284 283 283 283 283 284 284 284 285 285 286 285 285 284 283 282 282 283 283 283 282 281 281 281 280 279 276 275 274 274 273 272 271 270 271 271 270 270 270 270 270 269 268 267 266 266 265 265 265 265 264 264
287 287 287 287 287 287 286 287 287 287 287 287 287 286 286 286 285 285 286 285 284 284 284 283 283 284 284 284 284 285 285 285 284 283 281 280 281 281 281 282 283 283 284 285 285 284 283 282 282 282 283 283 281 279 278 278 277 276 274 274 274 273 272 272 272 271 271 270 269 269 269 269 269 267 265 265 265 265 266 264 263 263 263 263 262
287 287 287 287 288 288 287 284 285 286 287 287 286 286 285 285 285 285 285 285 284 284 284 283 283 284 284 285 285 284 284 284 283 282 281 279 279 280 281 282 282 283 283 284 283 282 281 281 281 280 279 278 277 276 275 274 273 273 272 272 272 271 271 270 270 270 270 270 269 268 267 266 264 265 265 264 264 264 264 263 262 262 263 262 260
287 286 287 287 287 287 287 287 287 287 287 287 287 286 286 285 285 285 286 287 286 286 286 286 285 285 285 284 284 284 284 283 284 284 282 282 281 280 281 281 283 284 284 282 280 280 279 279 277 276 276 275 273 273 272 271 271 271 270 269 269 269 268 268 268 268 268 267 266 265 265 265 264 264 263 263 263 263 263 262 262 261 261 261 260
286 287 287 287 287 287 287 287 286 286 286 286 286 286 283 285 286 286 285 285 285 285 285 286 286 286 285 285 285 284 284 286 285 284 283 282 282 282 282 283 284 283 282 282 280 278 277 276 275 275 274 273 272 272 271 271 270 270 269 269 268 267 267 267 268 267 266 265 265 264 263 263 263 263 262 262 262 262 262 262 261 261 260 260 259
287 287 287 287 287 287 287 286 286 286 286 286 286 285 285 285 284 284 285 285 285 284 284 284 285 285 284 284 285 285 284 284 283 283 283 283 283 283 282 283 283 283 282 280 278 277 276 275 275 275 274 273 272 272 272 271 270 270 269 268 267 267 266 266 267 266 264 263 263 263 263 262 262 262 261 261 261 261 261 261 261 260 259 259 259
286 287 287 287 287 287 287 287 286 286 286 286 285 285 284 284 285 284 284 284 284 284 284 283 284 284 284 284 283 284 283 283 283 282 282 282 282 282 282 283 283 282 282 281 277 276 276 275 274 273 273 272 272 272 271 271 270 270 269 267 266 266 265 265 265 264 263 263 262 262 262 261 261 261 260 260 260 260 260 259 260 259 259 259 259
286 286 287 287 287 287 287 287 286 286 285 285 284 284 284 284 283 284 284 283 283 283 283 283 283 283 283 283 283 283 283 283 282 282 282 282 282 282 282 282 283 282 282 279 277 276 275 274 273 273 272 271 272 271 271 270 270 269 268 267 266 266 265 264 264 262 262 262 262 261 261 261 260 260 260 259 259 258 259 259 259 259 259 258 258
286 287 287 287 287 288 287 287 287 286 286 286 286 285 284 284 284 284 284 283 280 280 280 281 281 281 282 282 282 282 282 282 283 282 282 281 282 281 281 281 282 282 281 277 276 275 274 273 273 272 272 271 271 270 270 269 268 267 266 266 265 264 263 262 261 261 261 261 261 261 260 260 260 259 259 259 259 259 258 258 258 258 257 258 257
287 284 283 282 286 286 287 287 287 286 286 286 285 285 284 284 283 283 283 283 283 283 282 280 280 280 280 280 281 281 282 282 282 282 281 281 281 281 281 280 278 279 279 277 275 275 273 272 272 272 271 270 269 268 268 267 266 265 264 264 263 262 261 261 261 261 260 260 260 260 260 259 259 259 258 258 258 258 258 258 258 258 257 257 257
286 287 287 286 285 285 286 286 286 286 286 286 286 285 284 283 283 283 282 282 282 282 282 282 279 278 278 279 280 281 281 282 281 281 281 281 281 281 278 277 277 277 276 273 274 274 273 272 272 271 269 268 267 266 266 265 265 264 264 263 262 262 261 261 260 260 260 260 259 259 259 258 258 258 258 258 257 256 257 257 257 257 257 256 256
287 287 287 286 286 286 287 286 286 286 285 285 285 284 284 283 282 283 282 282 281 281 281 280 276 276 276 276 276 279 280 280 280 280 281 280 281 280 278 277 276 275 273 270 269 268 269 268 268 267 266 266 265 265 264 264 263 262 262 262 262 261 261 261 260 259 259 259 259 258 258 258 258 258 257 256 257 257 257 256 256 256 256 256 256
286 286 287 286 286 287 286 286 286 283 283 283 283 283 283 283 282 282 281 280 280 280 280 280 277 277 277 277 276 277 278 279 280 280 280 280 277 278 277 275 275 274 272 269 268 268 267 265 265 266 265 265 264 263 263 263 262 262 261 260 260 260 259 259 258 258 258 258 258 258 258 258 258 257 257 256 256 256 256 256 256 255 255 255 255
286 284 284 283 284 285 286 285 285 285 284 283 283 282 281 281 281 281 281 280 280 279 279 279 277 277 277 277 275 276 277 276 275 275 273 269 269 271 272 272 271 271 269 267 265 265 266 264 263 263 263 263 262 262 262 262 261 260 260 260 259 259 258 258 258 258 258 258 258 258 257 257 257 257 257 256 256 256 255 255 255 255 254 254 255
286 287 285 283 284 285 284 283 284 283 283 283 283 282 281 280 280 280 280 279 279 279 279 278 276 276 277 275 274 275 274 274 273 273 270 268 268 268 270 269 269 268 267 265 264 264 264 263 262 262 261 261 261 261 261 260 260 260 259 259 258 258 258 258 258 258 257 257 257 257 257 256 257 256 256 256 255 255 255 254 255 254 254 254 254
287 287 282 284 283 284 283 282 282 282 282 282 282 281 281 280 279 279 279 279 279 278 278 277 277 277 275 273 274 275 275 274 273 271 270 269 267 266 267 267 267 266 265 264 264 263 263 262 262 262 261 261 260 260 260 259 259 259 258 258 258 257 257 257 257 257 257 256 256 256 256 256 256 256 255 255 256 255 255 255 255 255 254 254 254
286 286 285 285 283 282 282 281 281 279 280 279 280 280 279 279 279 278 278 277 277 277 277 276 275 274 273 273 273 274 274 272 271 270 268 267 266 265 264 264 264 264 264 264 263 262 262 261 261 261 260 260 259 259 259 258 258 258 258 257 257 257 256 257 257 256 256 256 256 256 256 255 255 255 255 255 254 254 254 254 254 254 254 254 253
284 284 285 283 284 283 282 281 281 280 279 279 278 276 277 278 277 277 277 276 276 275 275 273 269 269 270 272 272 272 269 269 266 267 267 265 264 263 262 262 262 261 261 261 261 261 261 260 260 260 259 259 259 258 258 258 258 258 257 257 256 256 256 256 256 256 256 256 255 255 255 254 254 254 254 254 254 254 254 253 253 253 253 253 253
283 283 282 282 282 281 280 280 279 278 278 276 276 276 276 275 275 275 275 274 273 273 272 270 267 268 268 270 269 267 267 267 266 266 265 263 262 262 261 260 260 260 259 259 259 258 259 258 258 258 258 257 257 257 257 258 258 257 257 256 256 255 255 255 255 255 255 255 255 255 254 254 254 254 253 253 253 253 253 252 252 252 252 252 252
282 282 282 281 281 280 279 278 277 277 275 274 275 275 273 273 273 273 272 272 270 270 268 267 267 267 266 266 266 265 265 265 263 262 262 262 261 260 260 259 259 258 258 258 257 257 257 257 257 257 256 257 257 257 256 257 257 256 256 256 255 255 255 255 255 256 255 254 254 253 253 253 253 253 253 253 253 252 252 252 252 252 252 252 252
280 280 280 280 279 278 277 277 274 275 274 274 274 273 271 272 271 270 269 269 268 267 266 265 266 265 265 265 264 263 262 262 261 261 260 260 260 259 259 258 258 258 258 258 257 256 256 256 256 256 255 256 256 256 256 255 255 255 255 255 255 254 255 255 255 254 254 253 253 253 253 252 252 252 252 252 252 252 252 252 252 252 252 252 252
278 278 278 277 277 276 275 274 273 273 273 272 272 271 270 270 269 267 266 266 266 265 265 264 264 263 263 262 262 261 260 260 259 259 258 258 258 257 257 257 257 257 257 256 256 256 255 254 255 254 254 254 254 254 254 255 255 255 255 254 254 254 254 254 254 253 253 253 253 252 252 252 252 252 252 252 252 252 252 252 252 251 252 252 252
276 276 276 276 276 275 274 273 272 269 271 270 269 268 267 266 266 265 264 264 264 264 263 263 263 262 261 260 259 259 259 258 257 257 257 257 256 256 256 256 256 256 256 255 255 255 255 254 254 253 253 253 253 253 253 253 253 253 254 254 254 253 253 253 253 253 253 253 253 252 252 251 251 252 252 252 251 252 251 252 252 253 253 253 253
275 275 275 274 274 273 272 271 270 270 269 268 266 265 265 264 263 263 263 263 262 262 262 261 260 260 259 258 258 258 257 257 257 256 256 256 255 255 255 255 254 254 255 254 254 253 253 253 253 253 253 253 252 252 252 252 252 252 252 252 253 254 254 253 253 253 254 254 253 253 253 252 252 251 252 252 252 252 252 252 252 252 253 253 253
274 273 273 272 271 271 270 270 269 269 267 267 265 264 263 263 262 262 262 261 261 260 260 260 259 259 258 258 257 257 257 256 256 256 255 255 255 255 254 253 253 253 254 253 253 253 253 252 252 252 252 252 251 251 251 251 251 251 251 251 253 253 253 253 253 253 254 254 254 254 253 253 253 253 253 253 253 252 252 252 253 253 253 252 252
271 271 270 270 270 269 269 268 268 267 266 265 264 263 263 263 262 261 261 260 260 259 259 259 258 258 257 257 256 256 255 255 255 255 255 254 254 253 253 252 252 252 252 252 252 252 252 251 251 251 251 250 250 251 251 251 251 251 252 253 254 254 254 254 254 255 255 255 255 255 255 254 253 253 253 253 253 253 253 253 253 253 253 253 253
Wind_Speed
5 6 5 6 6 8 8 7 8 7 7 8 8 8 8 7 7 7 5 6 5 6 6 6 6 6 5 5 5 5 5 4 4 4 4 3 3 3 4 4 4 4 3 4 4 4 4 4 4 4 4 4 4 4 4 4 4 4 4 4 4 5 5 6 7 9 8 6 6 6 5 5 6 7 7 6 6 5 5 6 6 6 6 6 6
6 5 5 5 7 7 7 7 6 6 8 8 9 9 8 8 8 7 8 8 7 7 8 7 6 7 7 7 7 6 6 6 5 5 5 5 5 3 4 5 6 5 5 5 6 5 5 6 6 6 6 6 5 6 5 5 5 6 6 6 6 6 7 7 8 8 10 7 7 6 6 5 7 6 7 7 7 6 7 6 6 6 6 6 6
4 4 5 5 7 6 6 6 6 7 8 8 9 9 9 9 8 8 9 8 8 8 8 8 8 8 8 8 8 8 8 7 7 6 7 7 7 6 6 7 7 7 7 7 8 7 7 7 8 7 5 7 8 8 7 8 7 8 8 7 8 8 8 9 8 9 10 10 8 8 7 6 7 7 7 7 6 6 8 7 6 5 6 7 7
4 4 5 6 6 6 6 6 7 7 8 8 9 10 8 8 7 8 9 8 8 8 9 9 9 9 9 9 9 9 9 8 8 8 9 9 8 9 8 8 8 8 8 8 8 8 8 9 9 9 8 9 9 8 8 8 9 8 9 9 9 10 9 9 10 10 10 10 9 8 7 7 7 7 6 6 7 7 7 7 7 7 7 7 7
4 5 5 6 6 6 7 7 7 8 9 8 9 9 8 8 7 8 8 8 9 8 8 8 9 9 9 10 10 10 10 10 10 10 9 9 10 9 9 9 9 10 10 10 9 9 9 10 10 9 9 9 9 9 9 10 9 9 10 9 9 9 8 8 9 9 10 11 10 8 8 8 8 8 8 8 7 7 7 7 7 7 8 8 7
4 5 5 6 6 7 7 7 8 9 9 9 9 8 8 8 8 8 8 9 9 9 9 8 8 10 10 11 11 11 10 10 11 11 11 10 10 10 10 10 10 10 10 10 11 10 10 11 11 10 10 10 10 10 10 11 9 9 11 10 9 8 9 9 9 10 10 11 10 10 9 8 8 8 7 7 7 7 7 7 7 7 7 7 6
5 5 6 6 6 8 8 8 8 8 8 8 7 7 8 8 8 9 8 9 9 9 9 10 9 10 11 10 11 11 11 10 10 11 11 11 11 11 10 11 11 10 10 11 11 11 11 11 11 11 11 11 11 11 10 10 9 10 11 10 9 9 9 9 9 10 10 10 10 10 10 9 9 9 7 6 7 7 8 8 7 5 6 7 8
6 6 6 6 7 8 8 8 7 7 6 6 7 7 7 8 9 8 8 9 10 10 10 10 9 9 10 10 11 10 10 10 10 11 10 11 10 10 11 11 11 11 11 11 11 11 12 12 12 12 12 12 12 11 11 10 9 9 10 9 9 10 10 10 9 10 10 10 10 10 8 8 8 8 7 7 7 8 7 6 7 7 8 7 7
6 6 6 7 8 8 7 6 5 6 6 6 7 8 8 8 8 8 8 9 8 9 9 9 9 10 10 10 10 9 9 10 9 9 10 11 11 11 11 11 11 12 11 12 12 12 12 12 12 12 13 14 15 13 12 9 8 10 9 9 10 10 10 10 9 9 9 9 10 9 8 9 9 8 8 8 8 7 5 5 8 8 8 7 7
6 7 7 8 7 7 6 6 6 6 6 8 8 8 7 7 7 8 9 9 9 8 9 9 9 10 10 10 10 9 9 8 11 15 13 10 10 9 9 11 11 12 12 11 12 12 13 12 11 16 16 16 16 17 17 16 16 13 11 9 10 10 10 10 10 10 9 10 10 9 9 10 9 8 8 8 6 5 6 6 8 7 7 8 8
7 7 9 8 7 6 6 7 6 7 8 7 7 8 8 7 7 8 8 8 9 9 8 9 10 10 11 10 10 9 9 9 15 14 16 18 13 10 10 11 11 11 12 12 12 12 11 12 12 13 15 16 16 19 16 17 17 19 20 19 16 12 10 11 11 10 10 10 9 9 10 10 9 7 7 6 5 6 6 6 7 7 7 8 9
8 8 8 8 8 8 7 7 7 8 7 9 9 8 7 7 8 8 8 8 9 8 9 10 10 9 9 10 10 10 10 12 14 16 17 18 16 12 11 10 10 11 11 12 11 11 12 11 10 9 10 13 11 12 15 19 19 19 21 20 20 21 19 14 10 10 10 10 10 10 9 10 8 6 6 5 6 5 6 7 7 8 8 9 8
8 9 9 8 9 8 8 8 8 8 9 9 8 7 7 7 8 8 10 9 7 8 10 9 10 9 9 10 10 10 10 12 13 16 17 18 19 16 11 11 11 12 11 12 12 12 11 10 10 9 9 13 12 12 11 11 16 19 19 19 19 20 20 22 20 15 10 10 10 10 9 8 7 6 5 5 4 7 7 8 7 7 9 11 10
8 9 9 9 9 9 9 9 9 10 9 8 8 8 8 9 9 8 7 6 8 8 9 10 9 9 9 10 9 9 10 10 14 16 16 18 18 17 13 13 12 12 13 12 11 12 12 11 10 10 9 9 10 11 11 12 10 10 12 13 13 14 18 20 19 19 16 11 10 10 8 6 7 5 4 3 6 7 7 8 8 10 11 11 10
9 9 10 9 8 9 10 10 10 10 9 9 9 9 9 9 9 8 8 9 8 9 9 9 9 9 9 8 8 9 8 11 13 15 16 17 18 16 12 11 11 12 12 13 13 13 12 11 11 11 10 9 8 10 10 10 10 9 10 10 11 11 11 11 12 11 12 12 13 10 7 5 5 6 5 5 7 7 8 10 11 9 8 8 10
11 9 10 10 10 10 10 10 10 10 9 9 9 10 10 10 10 8 8 8 7 7 8 8 9 9 9 8 8 10 9 11 13 15 16 17 17 11 11 12 12 12 12 12 12 11 11 11 11 11 11 11 11 12 12 10 10 11 11 11 10 10 10 7 6 7 9 9 8 6 5 4 4 5 6 6 6 8 8 6 5 6 8 9 11
10 10 11 12 11 10 10 10 10 10 9 9 10 11 10 10 10 7 7 8 8 8 8 8 7 8 8 9 10 10 9 11 13 15 16 17 13 10 11 10 11 12 12 11 11 11 11 12 12 11 11 12 12 13 16 14 11 12 11 11 9 8 8 5 6 7 6 6 7 6 8 9 11 12 14 15 8 3 4 6 8 9 10 11 12
11 11 12 12 11 10 9 10 10 10 9 10 11 10 10 9 9 7 8 8 8 9 7 7 7 8 9 9 10 10 9 10 12 13 16 17 15 11 10 10 11 11 11 10 10 10 12 14 13 12 12 11 11 13 15 13 11 11 11 11 10 9 8 5 4 5 8 8 9 9 10 10 11 11 3 5 3 1 5 9 10 8 10 11 14
11 11 12 11 10 10 9 9 10 10 10 11 10 10 10 9 7 5 7 8 9 7 6 7 6 6 8 9 10 11 10 11 12 13 16 17 14 10 10 9 10 11 9 9 10 9 10 11 16 15 13 13 13 13 15 14 11 11 10 9 9 9 8 7 7 6 5 5 5 6 7 8 8 7 6 1 1 2 4 4 5 6 10 12 10
11 11 11 12 10 9 8 9 10 10 11 11 9 10 8 6 7 7 8 7 8 7 6 6 8 7 6 7 8 10 11 9 11 14 16 17 19 11 9 10 11 11 9 9 8 9 10 9 10 15 19 18 16 14 15 16 13 11 9 9 9 9 6 6 5 5 5 4 4 5 5 4 5 5 6 5 4 4 4 5 6 8 9 8 8
11 12 11 11 10 9 9 9 11 10 10 10 8 9 8 8 7 7 8 7 7 7 7 7 8 8 7 9 9 9 9 10 11 14 16 18 19 17 11 12 11 9 9 9 9 9 8 8 7 10 15 17 17 17 16 17 17 13 10 9 9 6 6 4 5 6 5 4 5 5 5 5 6 6 7 5 5 4 5 6 7 7 8 8 8
11 10 11 11 10 9 9 10 10 9 8 8 8 9 8 7 7 8 6 7 8 9 8 6 7 8 8 9 9 10 11 15 11 13 15 17 18 20 13 12 11 9 9 10 9 8 8 6 6 8 13 15 16 16 17 17 19 10 9 9 7 8 4 3 4 4 4 4 4 4 5 5 5 7 6 5 6 6 5 5 6 6 7 7 8
10 11 11 11 9 9 9 10 9 6 7 8 9 9 8 4 6 8 8 8 9 9 8 8 8 9 9 7 7 9 9 8 13 13 15 16 18 19 20 14 13 10 10 10 10 9 6 6 6 8 12 14 15 16 16 18 14 9 9 10 8 8 6 4 4 4 4 4 4 4 4 4 5 8 8 6 5 5 5 5 5 6 7 7 8
9 10 11 9 9 9 8 8 9 8 8 6 6 7 6 5 4 6 7 8 7 7 7 7 7 8 9 8 7 7 7 8 10 16 15 15 16 17 18 20 18 12 10 10 9 9 7 6 6 10 12 14 15 15 16 15 12 13 11 13 10 9 5 4 4 4 3 3 4 4 4 4 5 6 6 6 5 4 5 5 5 7 8 8 9
9 10 10 9 9 8 7 7 7 6 5 6 6 7 6 5 7 7 7 7 8 8 8 6 7 8 7 8 7 6 7 7 8 9 11 11 14 17 18 18 19 19 13 11 10 8 6 5 8 10 11 13 14 14 13 14 15 12 12 10 11 5 4 4 4 4 4 4 7 8 8 7 6 5 5 5 5 4 5 6 6 7 7 8 9
10 11 11 10 10 10 9 9 9 8 8 6 6 6 6 6 7 7 7 7 7 8 8 7 8 8 7 7 7 7 5 5 5 5 5 8 10 14 16 16 17 17 17 13 11 11 10 9 9 10 11 12 11 10 6 6 10 11 11 11 4 4 4 4 4 4 5 6 8 6 5 4 4 4 3 3 4 6 5 6 5 6 5 6 7
11 11 12 11 10 9 9 6 5 6 7 6 6 6 6 6 7 8 8 7 7 7 8 7 7 6 7 7 7 5 5 5 6 4 4 4 5 6 7 9 14 14 11 11 10 6 6 7 7 9 9 11 8 8 8 9 9 7 5 3 4 3 4 4 4 4 5 4 4 6 5 3 2 3 4 4 5 5 4 5 5 6 5 6 7
10 11 13 10 6 8 6 10 10 7 7 6 6 5 6 7 8 9 9 8 7 8 7 7 8 6 6 7 6 5 6 6 5 6 6 5 5 6 6 6 7 7 8 7 5 5 6 7 9 7 7 7 6 5 4 3 3 4 4 3 3 3 3 3 2 3 4 3 3 3 3 3 4 5 4 4 5 5 4 4 5 6 5 5 7
10 12 12 9 9 7 6 6 7 7 7 6 7 7 6 6 9 9 10 6 7 7 6 6 5 4 4 5 5 7 7 6 7 6 7 7 7 6 6 7 7 7 8 9 5 5 6 6 7 6 6 7 6 5 4 4 3 3 4 3 3 3 3 3 4 4 3 3 4 4 5 4 5 4 4 5 5 4 4 4 5 6 6 6 8
9 11 10 8 6 6 6 6 5 7 8 8 7 8 11 14 11 9 9 11 12 13 11 9 7 5 6 9 8 7 6 2 3 6 7 9 13 13 12 11 9 5 8 15 9 7 7 6 7 8 10 8 7 7 6 6 5 4 3 4 3 3 3 4 3 3 2 3 4 4 5 4 5 4 4 5 5 4 4 5 6 6 6 7 8
6 7 8 7 9 6 6 6 6 6 7 7 7 7 6 7 15 18 16 12 10 13 16 19 18 16 10 7 4 9 10 8 7 8 9 10 11 13 14 14 14 11 14 10 6 7 7 7 9 8 6 6 5 6 5 5 5 4 4 4 3 3 3 3 4 2 2 4 4 4 4 4 5 4 5 5 5 5 4 5 5 6 8 7 8
7 7 7 9 9 9 6 6 6 7 7 6 7 6 6 7 6 11 15 17 18 16 12 14 14 14 13 11 9 8 7 9 11 11 11 12 12 13 13 13 14 14 17 14 7 6 6 6 6 7 6 5 5 4 4 4 4 4 3 3 4 4 4 4 3 3 4 4 5 4 5 5 4 4 5 5 4 5 5 5 5 6 7 7 8
10 10 8 8 8 11 9 8 7 7 7 6 5 5 7 6 7 6 6 10 11 11 12 12 11 12 13 14 14 14 13 10 9 10 12 13 12 12 12 13 15 16 18 12 8 6 6 6 5 6 6 6 5 5 5 4 5 4 4 5 5 4 4 3 4 4 4 5 4 5 4 4 4 4 4 4 5 6 5 6 5 6 6 7 8
10 8 7 7 8 8 8 7 7 7 6 7 7 6 6 7 8 7 6 3 3 5 6 10 12 13 14 15 14 14 14 14 15 14 13 12 12 12 11 10 14 17 17 11 8 6 6 6 5 5 5 5 4 5 5 5 4 4 4 4 3 2 3 4 4 4 5 5 5 5 5 5 4 4 5 5 5 6 6 6 6 6 7 7 8
7 10 14 11 7 8 8 8 7 7 7 7 7 7 8 6 5 6 6 6 6 6 5 5 9 12 9 7 10 13 13 13 13 13 13 12 12 11 12 8 9 10 11 9 7 5 5 5 6 5 6 6 6 5 5 4 4 4 3 3 3 3 3 4 4 4 4 4 5 5 4 5 5 5 5 5 5 6 6 6 6 6 7 7 7
7 7 6 7 6 6 7 8 7 7 7 7 6 6 6 5 6 6 5 6 6 6 5 2 1 2 7 10 10 10 11 12 12 13 12 13 13 13 10 9 8 9 7 3 5 3 3 3 4 5 5 4 3 3 3 3 3 3 3 3 3 3 4 4 4 4 4 4 4 4 4 5 5 5 6 7 8 8 8 7 7 7 8 9 9
6 6 4 4 5 6 6 6 6 6 7 7 6 5 7 8 4 6 4 6 7 6 6 3 1 3 4 5 5 7 9 10 11 12 12 12 14 11 9 7 7 6 5 3 3 3 3 2 2 3 3 3 3 2 2 2 2 2 2 2 3 3 4 4 4 3 4 4 4 4 5 5 5 5 6 7 6 6 7 7 8 8 9 9 9
7 6 6 6 7 8 8 7 8 9 8 8 6 6 6 6 6 7 5 6 6 6 6 5 5 5 5 4 5 4 4 8 9 9 9 11 8 8 7 4 5 5 5 4 3 3 3 3 2 3 3 2 2 2 2 2 2 2 3 3 3 4 4 3 4 5 5 4 4 4 5 5 5 5 6 6 6 6 6 6 6 7 8 9 8
5 10 12 12 9 7 7 7 6 6 6 6 5 4 5 5 6 5 5 5 6 6 5 5 5 6 5 3 4 4 5 5 6 6 4 2 1 2 4 3 3 3 3 3 3 2 2 3 2 2 2 2 2 2 2 1 2 2 3 3 3 3 4 4 4 4 4 5 4 4 4 5 5 5 5 6 6 6 6 8 8 8 9 8 9
5 5 6 7 5 7 7 6 7 6 4 6 6 5 6 6 6 6 5 5 6 6 6 6 6 6 4 5 6 6 6 6 6 7 5 5 5 5 5 4 3 4 4 3 2 2 2 2 2 2 2 2 2 1 1 1 1 2 2 3 3 4 4 4 4 4 4 4 4 4 5 5 5 5 5 6 6 6 8 9 8 8 8 9 10
4 6 6 6 7 7 6 6 6 7 5 5 5 4 6 5 5 5 6 6 6 6 7 5 4 3 3 5 9 9 7 7 7 6 6 7 5 4 3 2 3 3 2 2 2 2 2 2 2 2 2 2 1 1 1 1 2 2 3 3 3 4 3 4 4 4 4 5 5 5 5 5 5 5 6 6 6 8 8 8 8 8 8 9 10
5 5 5 4 4 6 6 6 5 5 6 4 6 6 4 5 7 6 5 6 4 4 7 5 2 1 2 7 9 12 7 3 4 3 3 4 3 2 2 3 3 3 3 3 3 3 2 2 2 2 2 2 2 2 2 2 3 3 3 3 4 4 4 4 4 4 4 5 5 5 5 5 5 6 7 8 8 7 8 8 8 8 8 9 9
6 6 5 4 5 6 6 6 5 5 5 6 6 5 4 6 5 4 5 5 5 5 5 3 1 2 1 4 6 6 1 2 3 3 3 3 2 3 3 3 3 4 4 4 3 3 2 2 2 2 2 2 2 2 3 3 3 3 4 4 4 4 4 4 4 4 4 5 5 5 6 7 7 7 7 7 7 7 8 8 8 8 9 9 9
5 4 4 5 4 5 5 5 5 5 5 5 5 3 4 4 4 4 4 5 4 4 3 1 2 2 2 2 3 2 1 2 2 2 3 2 3 3 3 3 4 3 3 3 3 2 2 2 2 2 2 2 2 2 2 3 3 4 3 4 4 4 4 4 4 4 3 4 4 5 6 6 7 7 7 7 7 7 7 8 8 8 8 9 10
4 5 4 4 4 4 4 4 5 5 3 3 4 5 3 4 4 4 3 4 1 1 2 2 2 3 2 2 2 2 2 2 2 2 3 4 4 4 4 3 3 3 3 2 2 2 1 1 1 1 1 1 1 2 3 3 4 4 4 3 4 4 4 4 3 3 4 5 5 5 6 6 6 6 7 7 7 7 8 8 8 9 9 9 10
4 4 3 5 4 3 3 4 3 4 4 4 4 3 2 2 3 2 1 0 1 2 3 3 3 2 2 2 2 2 3 3 4 4 3 4 4 3 3 3 3 3 2 2 2 1 1 1 1 1 1 1 2 2 3 3 3 3 4 4 5 5 5 5 5 4 4 5 5 5 6 6 7 7 8 7 7 7 8 9 9 9 10 11 11
3 4 4 3 5 3 3 3 3 4 3 3 3 2 1 1 1 1 1 1 2 2 3 3 3 3 3 3 3 3 3 4 4 4 4 4 3 3 3 3 3 3 2 2 2 2 2 2 2 2 3 3 3 3 3 4 4 4 3 4 4 4 4 4 4 4 5 5 5 6 6 6 7 7 8 8 8 8 9 9 10 11 11 11 11
3 3 3 4 5 5 3 3 2 1 1 1 1 0 1 1 2 1 2 2 3 3 4 3 3 4 4 5 4 4 4 4 4 3 4 3 3 3 4 4 3 3 2 2 2 3 3 3 3 3 4 4 4 4 4 4 4 4 4 4 4 4 5 6 5 6 6 6 6 7 7 8 8 8 8 8 8 8 9 9 9 10 11 11 11
3 3 3 3 3 4 3 3 2 3 2 3 3 2 2 2 2 2 3 3 3 3 3 4 4 4 5 4 4 4 4 3 4 4 4 4 4 4 4 4 4 3 3 3 3 3 3 3 3 3 3 3 3 4 4 4 4 4 5 5 5 9 9 10 7 6 8 7 7 7 8 8 9 9 9 9 9 9 10 10 10 11 11 12 12
1 2 2 2 2 2 1 1 2 2 2 3 3 3 3 2 3 2 3 3 4 4 4 4 4 4 4 4 3 4 4 4 4 4 4 4 4 4 3 4 4 3 3 3 2 2 2 2 2 2 2 3 3 3 4 4 4 5 5 5 9 10 10 11 12 13 10 7 8 8 8 9 9 9 9 9 9 10 10 11 11 11 11 12 13
0 1 1 1 1 1 1 1 1 2 2 2 3 3 3 3 4 4 4 4 4 4 5 5 4 4 5 4 4 4 5 4 4 4 4 4 4 4 4 4 3 3 2 2 1 2 2 2 2 2 3 3 4 4 4 5 5 6 8 11 12 13 13 13 9 10 11 9 8 8 8 9 9 9 9 9 10 10 11 12 12 12 11 11 12
Wind_Direction
224 231 219 221 224 227 227 219 220 216 219 217 224 226 228 227 229 230 229 230 227 228 233 235 235 234 230 224 222 214 209 206 206 206 221 209 212 208 190 206 209 213 200 201 207 221 220 224 221 225 215 228 224 217 221 218 220 231 230 229 232 224 223 240 254 267 270 263 263 264 264 247 259 258 263 261 266 268 260 267 271 274 281 283 289
218 222 217 219 218 226 228 227 221 215 216 217 221 225 223 222 222 219 224 228 220 223 227 228 231 231 231 230 229 227 222 221 213 218 224 218 219 209 213 213 218 221 216 223 215 218 229 234 238 234 225 231 241 237 232 229 225 233 232 230 236 235 224 236 252 260 270 275 268 257 254 236 262 260 259 266 266 273 274 274 268 262 267 276 280
225 221 221 223 224 222 222 221 216 219 223 227 227 225 224 223 214 215 221 224 217 219 223 225 225 226 228 231 231 229 227 225 223 221 226 227 226 220 218 222 223 223 221 225 224 217 220 228 236 235 222 225 231 237 236 234 230 232 236 233 235 238 234 228 244 257 263 266 267 271 265 255 251 266 267 267 268 267 271 269 266 266 261 268 271
230 223 228 234 233 225 222 217 215 218 223 227 231 230 228 227 216 220 223 222 221 215 218 224 224 223 228 229 230 230 227 225 225 223 228 229 230 231 225 223 227 231 232 232 230 225 223 228 231 231 228 231 232 231 232 231 234 236 239 240 237 239 240 236 233 250 262 270 263 259 262 266 263 262 265 261 260 264 265 273 269 264 267 266 267
233 232 229 239 231 227 228 215 215 215 220 222 226 228 228 228 226 225 223 226 225 221 218 217 223 224 224 226 228 230 228 226 227 227 227 229 232 234 233 231 230 232 234 236 237 236 235 234 236 233 231 238 241 235 232 229 230 236 242 243 241 240 239 238 240 241 251 257 263 258 256 256 261 267 268 273 273 268 267 264 268 270 273 274 272
229 236 231 232 237 232 233 222 221 219 218 219 221 219 219 221 225 226 222 231 227 223 224 216 214 223 225 227 229 231 229 226 227 228 229 228 229 233 236 236 236 235 235 235 236 235 238 240 239 236 234 235 242 244 239 234 231 234 239 243 243 242 241 242 242 243 244 252 257 264 250 248 254 251 252 251 265 276 277 275 273 268 268 271 269
235 234 234 231 240 239 234 227 224 223 220 220 214 209 211 214 215 222 217 222 226 227 224 225 222 223 228 228 229 229 230 227 227 228 229 229 229 230 232 234 237 237 236 235 234 235 236 238 239 235 233 234 238 240 241 236 231 232 235 239 240 240 243 243 243 242 242 250 252 250 256 250 246 258 250 239 248 260 278 283 277 266 268 273 281
239 234 231 235 236 240 235 232 228 230 231 226 221 219 214 209 212 215 212 216 223 226 226 223 226 222 228 230 230 229 228 229 229 228 227 227 228 230 230 232 234 236 236 235 234 234 235 235 236 235 234 234 234 238 237 240 235 236 237 234 233 236 241 245 243 243 246 245 246 252 245 251 247 243 244 241 251 253 238 252 276 288 285 280 275
248 238 232 235 239 239 239 233 233 232 227 231 231 227 221 216 211 208 207 216 218 223 225 225 225 226 227 228 230 225 225 228 227 223 223 225 227 231 231 231 233 237 239 237 235 233 234 236 236 236 231 234 235 237 238 236 239 245 243 235 234 235 241 243 243 245 246 245 249 245 247 246 247 248 246 238 241 259 278 279 276 274 279 281 277
247 247 240 239 240 244 245 243 239 230 225 227 229 227 224 219 213 211 213 215 218 217 220 222 224 229 230 228 224 223 223 225 224 223 222 228 226 227 230 233 233 236 239 241 239 234 232 232 232 233 235 236 237 239 240 240 239 241 248 246 240 239 238 241 242 241 244 246 245 245 248 245 244 242 246 252 264 270 264 263 272 283 286 279 278
251 248 252 249 249 249 247 244 233 233 233 231 229 226 225 219 219 221 219 215 216 214 210 218 220 224 227 227 224 221 223 225 227 220 221 224 231 237 236 237 235 235 236 238 241 240 235 232 236 233 231 236 237 237 234 232 231 232 236 241 245 246 246 242 243 239 242 247 249 246 247 253 251 250 253 263 262 259 268 273 277 281 280 291 292
253 254 255 261 260 255 248 245 240 240 235 235 230 227 222 221 224 225 225 221 217 209 213 218 221 219 222 226 228 227 228 227 220 221 220 221 218 228 237 240 237 236 236 236 240 242 241 238 235 233 228 229 229 232 228 228 231 231 232 233 234 237 240 244 249 247 241 246 249 245 247 251 258 248 254 256 263 267 266 270 269 274 281 280 284
257 256 253 251 257 257 254 250 247 243 239 238 232 226 224 225 226 224 225 223 210 210 219 217 220 218 218 224 228 228 231 228 216 218 219 219 219 218 234 236 237 238 235 235 238 240 241 240 241 236 234 224 227 235 239 235 225 228 232 235 236 236 238 237 238 242 255 253 250 253 245 257 259 257 261 269 283 275 274 267 266 271 278 280 279
257 258 256 248 247 251 253 251 249 246 243 241 236 233 228 228 228 224 225 220 216 222 225 223 221 217 216 220 231 234 233 224 212 219 220 219 219 218 231 234 237 239 237 233 234 237 237 238 240 243 242 228 223 228 231 237 242 234 231 234 238 236 234 236 237 235 236 247 253 253 254 248 258 276 283 263 265 270 275 276 281 283 276 273 279
264 260 259 255 243 241 245 246 249 250 247 243 241 238 232 236 233 226 220 223 218 219 222 222 223 220 220 219 230 242 238 229 214 218 220 220 222 220 230 232 236 240 240 236 235 237 237 237 238 245 247 241 225 214 224 231 235 237 238 237 235 237 234 228 223 228 230 230 241 249 256 261 263 273 275 264 260 265 273 281 284 282 283 277 269
268 268 265 258 248 241 239 245 248 248 246 243 243 242 235 232 234 225 221 232 228 229 236 228 232 227 223 219 225 242 246 225 205 218 220 221 219 220 228 232 235 238 240 238 235 235 236 235 238 239 241 241 232 209 216 229 237 239 239 239 239 235 233 227 227 220 226 226 227 236 246 258 258 263 273 276 273 276 282 283 275 268 273 276 275
266 263 262 262 254 247 241 242 247 249 248 246 245 244 240 237 236 222 227 230 227 224 222 218 222 226 223 217 224 238 249 229 207 215 220 219 215 223 226 229 233 236 237 237 236 236 232 231 230 237 238 240 232 209 210 211 233 236 237 236 234 228 226 186 168 188 206 223 238 244 250 250 254 259 263 268 281 283 266 274 271 279 282 283 284
264 262 262 261 257 252 246 244 248 247 247 246 246 246 245 242 240 215 223 229 229 230 221 220 220 223 222 225 220 229 243 235 214 210 217 215 209 219 223 227 232 234 237 233 234 233 232 224 227 235 240 239 231 207 211 203 224 231 234 234 230 225 220 189 157 192 207 224 236 244 250 259 263 273 266 119 133 316 262 265 281 287 280 279 284
260 256 259 262 260 258 255 252 250 250 248 248 245 249 248 243 236 218 228 232 236 237 220 222 225 218 218 224 223 228 243 247 230 210 215 214 210 219 223 229 234 235 232 233 230 231 235 227 220 226 232 239 231 214 212 208 224 228 227 224 226 222 214 185 180 183 187 200 222 228 243 243 248 242 235 148 229 260 266 274 285 271 277 281 278
256 261 265 266 266 264 259 252 252 251 251 250 249 250 252 248 242 237 234 230 236 234 225 223 229 231 214 213 225 225 234 240 236 217 211 214 210 212 222 228 231 233 228 230 231 229 230 233 219 215 225 231 234 224 220 213 221 227 212 215 221 222 189 176 179 178 196 198 216 223 234 248 243 243 248 245 243 238 253 270 274 274 274 271 272
263 265 266 266 265 262 261 255 255 251 247 249 250 257 253 249 248 242 239 235 234 237 227 227 228 237 234 229 225 224 217 230 238 225 215 215 214 210 225 227 233 231 232 227 226 232 229 223 222 207 217 227 230 229 224 220 221 223 209 213 217 194 141 169 176 186 198 214 224 228 235 239 243 251 256 246 256 270 270 270 265 260 263 268 271
263 262 261 260 260 258 257 258 251 247 247 244 248 250 248 237 242 248 244 238 234 235 234 228 228 237 238 230 223 230 226 225 238 238 225 219 218 214 220 228 225 230 233 237 234 231 223 220 222 199 206 220 226 223 221 221 215 198 211 201 167 148 179 162 142 162 195 190 203 220 226 235 242 253 253 261 268 270 266 264 263 259 260 261 265
263 261 261 261 255 250 252 252 249 235 239 234 240 247 245 231 225 233 239 239 239 240 235 234 234 240 243 235 226 226 229 227 227 240 237 225 222 221 222 228 226 222 234 238 236 237 219 220 222 193 203 214 220 219 216 216 196 199 190 187 175 189 136 140 137 153 166 182 191 205 219 229 249 260 268 267 267 266 265 265 264 265 268 267 269
265 264 268 262 260 254 252 250 244 244 247 243 233 239 235 229 226 229 227 231 240 240 242 232 232 240 242 247 242 232 228 234 230 230 238 232 231 231 232 231 229 230 232 239 241 239 229 217 204 185 205 211 212 210 213 207 194 196 193 201 202 167 133 136 163 170 176 191 212 226 229 243 251 261 262 263 263 269 271 276 276 275 276 275 273
273 274 275 274 270 265 260 253 251 250 244 236 234 235 226 209 239 236 224 228 234 237 244 234 232 238 241 245 253 250 234 227 238 236 228 233 236 240 239 237 237 234 237 241 237 239 237 193 172 190 202 204 200 199 198 199 204 201 202 187 148 147 149 163 162 171 204 215 243 252 255 252 247 255 263 269 277 282 275 271 269 270 273 274 271
275 274 276 276 273 271 268 263 258 253 252 237 229 230 228 223 230 237 229 226 223 231 239 238 238 238 243 250 253 255 250 236 240 236 213 219 233 241 241 241 240 237 237 245 246 241 238 218 195 193 195 191 186 192 183 182 189 194 170 143 150 146 165 166 178 194 224 239 249 246 247 249 246 249 267 277 273 266 267 270 271 270 266 268 273
273 274 274 275 274 270 264 261 260 251 241 239 231 231 224 227 229 235 233 227 221 227 233 233 243 244 246 248 251 253 250 247 240 228 199 210 224 231 231 240 240 242 244 243 242 225 202 182 188 190 185 181 153 123 134 142 142 138 134 146 148 164 166 192 202 211 228 232 241 255 251 249 265 268 260 253 256 258 258 265 269 273 272 270 273
267 270 271 272 265 268 259 259 258 259 249 232 238 229 222 213 226 229 221 215 216 227 227 230 234 234 239 245 244 243 241 229 226 229 192 202 218 221 225 224 220 213 218 213 186 165 161 160 158 142 131 129 135 135 130 131 129 140 145 147 146 137 145 135 169 227 237 242 250 244 259 253 255 253 256 252 255 258 253 254 258 272 272 274 273
262 267 269 268 263 258 253 248 245 250 252 243 232 226 218 210 223 239 236 225 218 229 236 241 229 217 221 234 239 245 242 235 237 214 217 204 209 220 220 222 219 216 199 168 139 129 144 161 170 152 161 162 158 153 148 148 152 146 134 139 146 150 166 192 202 215 200 208 233 242 250 249 253 250 252 257 253 252 254 256 259 258 271 260 259
263 265 267 264 257 255 250 247 232 239 245 252 251 246 233 232 234 231 252 235 232 241 240 244 242 231 235 240 228 234 242 280 83 193 217 223 230 231 238 240 227 196 164 164 155 163 174 172 175 178 180 179 176 178 183 183 182 177 167 176 164 179 185 198 211 206 196 219 238 241 242 245 253 252 254 258 269 262 252 248 265 268 265 263 266
253 252 262 255 264 256 254 255 251 243 242 243 248 255 268 227 226 236 242 251 235 227 233 241 247 247 239 260 261 251 265 277 270 265 255 246 239 240 243 242 231 200 168 154 170 181 177 178 190 193 179 179 177 184 175 180 190 179 174 173 184 183 191 196 212 193 198 221 229 233 236 237 246 253 256 262 267 271 266 258 250 263 263 260 264
259 260 259 271 271 265 259 258 259 259 257 246 244 249 252 271 264 216 226 240 242 238 221 232 239 248 254 256 269 276 250 245 254 258 259 256 249 243 242 237 222 189 188 168 178 193 185 183 180 190 178 179 190 172 170 182 178 179 168 172 198 190 189 214 179 174 213 215 223 227 229 233 241 246 254 260 261 265 258 260 253 252 258 260 262
263 269 268 270 270 272 268 265 263 263 259 256 254 246 255 258 266 284 204 219 241 244 244 248 253 256 254 252 249 254 264 268 255 250 251 252 246 240 237 232 223 204 190 195 203 185 183 185 177 176 176 186 181 177 182 173 182 178 178 189 198 180 173 169 148 191 214 219 221 233 231 237 237 243 248 250 254 260 262 260 260 259 261 264 265
258 261 265 266 270 273 271 268 264 263 260 263 261 257 249 244 255 258 278 262 236 261 264 255 250 249 250 251 252 252 255 255 258 258 255 247 239 234 228 227 217 209 195 197 202 190 173 183 177 165 169 173 177 182 191 185 169 171 175 186 178 144 146 145 182 205 213 215 220 229 229 234 236 242 252 249 247 256 262 261 256 259 260 259 268
255 259 258 260 263 267 269 271 269 266 267 259 252 246 247 243 234 251 250 260 272 265 228 214 227 232 240 248 247 246 245 249 250 251 253 249 234 221 215 212 208 210 205 204 201 191 173 175 184 184 179 188 188 179 184 165 159 172 178 182 171 168 171 188 205 203 206 216 224 225 227 229 236 244 242 247 254 250 252 257 257 257 263 268 270
259 259 264 256 245 246 255 262 261 262 264 259 250 245 250 247 245 241 242 248 256 266 273 228 147 201 238 247 249 248 245 244 246 246 247 235 220 202 201 207 206 208 205 186 199 188 148 157 166 174 165 163 149 156 162 157 175 173 181 179 194 197 200 206 205 202 211 217 228 229 230 238 235 235 250 253 249 250 259 259 261 263 263 268 272
260 263 254 253 254 256 258 251 252 258 261 264 264 261 260 257 245 251 247 244 250 248 253 238 174 239 231 236 238 245 240 240 242 241 231 219 212 205 207 205 206 195 196 172 157 130 160 124 129 122 138 145 146 153 137 161 151 154 163 194 204 206 216 210 206 204 214 225 230 225 228 238 237 238 243 255 254 247 252 260 265 262 260 261 267
259 264 270 276 274 271 272 267 271 264 260 260 255 253 258 254 250 248 242 241 240 246 246 230 214 235 232 227 162 204 225 227 225 222 216 214 214 206 203 198 190 177 188 159 170 151 138 136 136 138 130 130 127 127 145 162 171 187 192 197 209 223 212 217 222 226 229 232 232 231 234 235 233 236 237 245 251 256 255 253 259 272 274 269 259
250 258 260 265 265 269 273 276 275 268 263 259 247 241 246 251 248 243 241 241 242 239 240 236 224 225 223 178 167 192 178 186 186 192 173 100 100 170 177 168 150 161 136 147 135 152 128 134 117 95 106 113 122 133 162 185 180 196 205 206 217 218 210 224 217 217 221 231 237 236 233 238 239 238 241 246 253 255 259 265 261 262 266 268 267
269 274 259 251 264 261 262 263 268 264 255 256 252 235 239 240 242 242 235 235 236 234 237 231 226 227 206 171 189 178 190 192 190 185 172 179 171 173 174 157 156 149 148 142 145 126 113 91 105 115 117 117 131 141 152 177 205 207 211 228 228 232 230 223 225 227 232 237 236 238 236 237 240 243 248 248 251 259 264 265 265 263 260 264 269
266 263 263 262 254 266 257 249 249 247 250 247 252 243 238 238 238 231 231 232 238 240 241 237 235 217 188 196 199 191 198 196 190 182 183 183 179 165 154 132 124 118 115 111 106 94 92 103 102 108 109 113 128 157 172 187 212 223 229 232 239 242 242 237 232 236 242 239 241 240 244 242 242 244 248 251 254 261 260 262 264 262 263 263 265
261 266 262 262 243 241 248 245 245 240 244 250 249 245 241 243 243 243 242 245 244 245 255 250 242 234 200 205 208 207 210 196 177 170 162 164 161 125 78 74 68 76 88 89 98 109 107 107 113 126 140 151 158 184 182 201 209 222 224 228 232 237 237 240 234 236 239 249 248 246 244 244 248 251 258 261 263 258 261 259 262 266 268 269 270
253 261 263 264 255 250 251 256 254 256 245 242 243 243 246 253 253 251 252 255 258 256 256 254 52 44 214 211 208 190 94 98 139 152 142 136 108 89 85 74 70 65 68 71 71 81 103 120 130 137 157 172 183 189 205 215 210 225 229 226 229 235 242 244 246 242 237 242 247 252 257 260 261 259 259 255 256 262 261 263 264 264 265 267 267
262 259 260 257 261 262 261 261 259 252 252 250 257 256 249 245 244 246 246 246 241 240 236 162 131 146 137 153 143 116 122 117 116 110 136 115 87 78 75 76 76 82 82 81 80 81 105 122 133 135 143 182 197 210 223 233 230 230 235 236 239 238 245 246 243 246 250 260 267 265 263 256 255 258 259 258 259 260 263 262 264 264 266 267 269
250 256 260 263 256 254 253 248 248 252 255 257 246 245 235 236 242 245 242 241 222 171 124 114 128 136 127 113 124 137 102 87 93 84 72 77 80 79 85 91 92 97 99 100 91 101 96 118 130 152 194 208 212 234 238 246 245 250 250 250 257 256 254 253 265 272 278 271 267 262 261 262 259 258 259 262 259 261 266 265 263 267 268 266 267
251 254 251 254 260 254 248 244 233 234 234 234 238 224 202 225 232 240 244 52 94 103 95 99 111 110 112 112 92 93 87 82 69 68 78 80 86 87 84 84 81 85 80 80 81 71 52 41 10 5 329 309 286 278 283 268 263 261 257 257 261 265 273 276 275 271 261 256 260 264 268 266 263 259 258 263 265 264 266 267 266 262 263 267 267
260 255 251 247 249 250 246 235 217 225 228 233 238 230 205 181 73 80 60 68 94 104 115 121 126 120 110 110 103 87 80 82 84 80 79 80 79 80 76 71 67 60 60 51 41 33 37 19 8 349 332 323 322 316 304 302 299 291 277 267 261 264 265 270 270 265 263 258 258 260 261 263 264 266 264 261 262 262 262 263 262 264 264 266 270
246 247 245 245 249 248 230 215 212 187 218 222 197 192 107 94 115 111 129 126 122 127 129 130 116 105 99 97 92 87 82 84 79 80 76 74 62 56 53 55 47 44 37 34 27 25 18 16 2 349 334 330 322 314 309 299 290 284 277 274 269 267 273 276 272 266 259 255 247 248 250 252 257 258 260 259 260 263 266 269 270 271 273 273 273
245 246 249 240 243 243 232 217 198 198 174 155 132 127 133 136 135 135 129 121 117 114 108 102 97 95 94 94 84 77 77 73 73 69 66 61 57 54 47 43 38 30 26 23 25 21 9 8 2 340 329 313 307 301 295 288 283 281 277 273 274 280 285 285 284 278 274 273 265 254 250 249 248 251 254 254 257 260 264 266 269 273 275 273 273
264 262 262 263 251 253 248 201 168 145 136 143 145 136 136 134 128 111 99 96 90 87 82 89 95 98 93 90 80 76 73 70 66 67 65 60 56 53 51 42 39 31 27 21 17 12 2 351 336 318 307 305 302 297 294 292 288 288 289 285 286 291 288 278 270 265 263 264 259 257 254 254 253 255 257 260 262 263 264 267 269 270 271 272 270
283 268 282 284 257 241 232 201 178 142 147 134 127 128 126 112 100 98 98 96 96 100 99 101 87 74 72 69 66 65 63 64 65 62 63 61 56 51 47 45 35 33 23 24 7 7 355 345 330 327 319 314 308 303 299 297 297 294 289 293 295 291 285 280 276 272 271 276 280 279 277 276 276 275 273 274 274 272 269 271 270 270 270 271 272